Wind_Speed
3 3 2 2 3 3 4 5 5 6 7 7 7 6 7 7 8 9 10 11 12 12 12 11 11 11 11 13 14 15 15 15 15 14 13 12 11 11 11 10 10 9
7 6 6 5 5 5 5 6 6 6 7 7 7 7 7 8 9 9 11 12 13 14 15 15 14 13 13 15 16 16 16 16 15 14 13 12 11 11 11 11 10 10
9 9 9 9 9 9 8 8 8 9 9 9 9 9 10 10 10 11 12 13 14 16 17 18 17 16 15 16 18 17 17 16 16 15 14 13 12 12 12 12 11 11
12 12 12 12 12 12 12 12 12 12 12 12 12 13 13 13 13 13 14 15 17 18 19 19 19 19 19 19 19 18 18 17 17 16 16 15 14 14 14 14 14 14
15 15 15 15 15 15 15 15 15 15 15 15 16 16 16 16 16 16 18 19 19 20 21 21 21 22 22 21 20 19 19 19 18 17 17 17 17 16 16 15 15 14
17 18 18 18 18 18 19 19 18 18 18 18 18 18 18 18 19 20 21 22 22 22 22 23 23 23 23 22 21 19 19 19 19 18 18 18 18 17 16 14 13 12
19 20 20 21 21 21 22 22 22 21 21 21 21 21 21 21 21 22 23 25 25 24 24 24 24 24 24 23 22 21 20 20 20 19 19 18 17 15 14 12 11 11
20 21 22 22 23 23 24 24 24 24 23 23 23 23 24 24 24 25 26 26 26 26 25 25 24 24 25 24 24 23 21 20 20 19 19 18 16 14 13 12 12 12
21 22 23 23 23 24 25 25 25 25 25 25 26 26 26 27 27 27 27 27 26 26 26 26 25 25 25 25 25 24 22 21 20 20 19 18 17 15 15 15 15 16
22 23 23 23 24 25 26 26 26 26 27 27 28 28 28 29 29 28 28 28 27 26 26 26 26 25 25 25 25 24 23 22 21 21 21 20 18 17 17 19 19 19
21 22 22 22 23 24 25 26 27 27 28 28 29 29 30 30 29 28 28 28 27 25 25 25 25 25 26 26 26 25 24 23 23 23 23 22 20 20 20 21 22 22
20 20 20 20 21 21 22 24 25 26 27 28 28 29 29 29 28 27 26 26 25 24 23 23 24 26 27 27 27 26 25 25 24 23 23 22 22 22 22 22 23 24
19 20 20 20 20 20 20 21 22 24 26 26 26 27 27 27 26 25 24 24 24 24 24 24 24 25 26 26 27 27 27 27 26 25 24 24 24 24 24 24 24 26
18 19 20 20 21 21 21 21 22 23 24 25 25 25 25 26 26 25 24 24 25 26 25 25 25 25 25 25 26 26 26 27 27 27 27 27 26 25 26 26 26 28
20 20 20 22 23 24 25 25 24 25 26 26 26 26 25 24 25 25 25 25 25 26 26 25 25 26 25 24 23 24 24 25 26 27 28 28 27 26 27 28 29 31
24 25 26 26 26 26 26 27 28 28 28 28 28 28 26 25 25 26 25 25 25 26 26 26 26 26 25 25 25 25 26 27 28 29 29 30 30 30 30 31 33 35
28 29 29 28 28 27 26 27 29 30 30 30 30 29 28 27 27 27 26 25 25 26 27 28 29 29 28 28 29 31 31 32 33 33 33 34 34 35 36 37 38 38
30 31 30 29 29 28 28 29 29 30 30 30 30 29 28 27 27 27 26 26 27 28 30 31 31 32 32 32 34 35 36 37 38 38 38 38 39 40 41 41 42 42
31 32 32 32 32 32 32 32 31 30 30 30 30 30 29 28 27 27 26 26 28 29 30 31 33 34 34 35 36 37 39 40 41 40 41 42 43 44 44 45 45 45
32 33 34 35 36 37 36 33 31 30 30 30 31 31 31 30 28 27 26 27 28 29 30 32 34 36 36 37 38 39 40 41 41 41 41 43 45 46 46 47 47 47
34 34 35 34 35 36 35 31 29 29 29 30 31 32 32 32 31 31 31 30 30 31 32 34 36 36 37 39 41 41 41 40 39 40 40 41 43 45 46 47 48 49
34 33 32 32 32 33 31 28 28 28 28 29 31 32 33 33 33 34 34 35 35 35 35 37 38 38 39 40 41 40 40 39 40 40 40 41 43 44 46 48 50 52
34 34 34 33 34 34 31 29 28 28 29 31 32 33 34 34 34 35 36 38 37 36 38 40 38 37 37 38 39 39 39 42 44 45 45 46 47 48 49 51 53 55
37 37 38 37 38 39 37 35 34 33 33 34 36 36 35 35 35 35 36 36 33 34 37 37 35 36 38 40 42 43 44 47 50 52 53 54 55 55 55 56 58 60
38 40 41 41 44 46 44 43 42 40 39 39 39 37 35 34 33 35 38 38 35 35 38 39 41 46 49 50 52 53 54 56 57 59 61 63 64 65 64 64 66 67
36 38 41 45 48 50 49 48 47 45 43 41 37 34 32 30 30 35 39 39 36 36 40 44 48 52 56 58 60 62 64 64 65 66 69 71 72 72 72 72 73 73
Wind_Direction
293 296 300 305 317 325 332 337 344 348 348 347 344 341 344 346 340 337 336 337 336 332 328 323 320 325 330 331 332 332 332 333 334 334 335 332 328 324 321 320 320 317
288 290 293 293 295 299 304 310 314 320 324 326 326 323 322 322 321 321 321 325 327 326 324 319 315 316 321 325 325 324 325 328 329 330 330 329 326 323 322 319 318 316
286 289 291 292 293 294 296 299 301 304 306 309 311 310 309 310 311 314 314 315 317 320 320 317 313 312 314 318 319 318 319 322 324 324 326 326 322 318 314 311 309 307
284 287 288 290 291 292 293 294 295 297 297 298 300 302 304 306 309 312 313 313 313 315 316 315 312 309 309 311 313 313 314 316 318 318 319 319 316 311 306 302 300 298
284 286 288 289 290 290 291 291 291 291 291 293 295 298 301 304 308 310 311 311 311 312 312 310 309 307 306 308 309 309 310 312 313 314 313 310 307 304 301 299 296 295
288 288 289 290 291 290 290 291 291 290 289 290 292 295 298 301 304 307 308 308 308 308 307 306 305 304 304 305 305 305 308 310 311 311 309 305 302 299 296 294 293 292
291 291 292 293 293 292 292 292 293 292 291 290 291 293 295 298 301 303 304 304 304 304 304 303 302 302 302 302 303 303 306 309 309 308 307 303 299 294 289 285 283 280
291 291 291 292 292 292 292 292 292 292 291 291 292 293 294 295 297 299 299 299 300 300 300 300 300 299 300 301 301 303 305 306 305 304 303 299 293 286 281 275 269 268
290 289 290 290 289 288 288 289 290 290 290 290 291 291 292 293 294 295 295 295 296 296 297 298 298 298 299 300 301 303 304 303 301 300 297 293 285 277 273 270 267 266
293 292 290 288 286 285 285 286 287 287 288 289 289 290 291 291 292 293 294 294 295 296 297 297 298 298 299 300 301 302 302 301 300 298 295 289 281 273 269 268 270 271
300 299 297 293 289 287 285 285 286 287 288 288 290 290 291 291 292 293 293 294 296 297 297 298 299 299 300 300 301 301 301 301 300 298 296 290 282 276 272 271 272 273
307 306 305 303 300 296 292 290 289 288 288 289 290 290 291 291 292 294 295 296 297 297 296 296 298 299 299 300 301 301 302 302 301 298 295 291 286 282 279 276 275 274
308 309 310 309 308 306 303 299 296 293 291 291 291 291 292 293 295 296 298 298 297 295 295 295 294 294 295 297 299 300 300 301 300 298 294 290 288 285 283 281 278 275
309 309 310 310 310 308 305 302 299 297 294 293 292 292 294 296 298 299 299 297 294 294 294 294 292 291 293 296 298 297 296 296 295 294 294 293 292 290 288 284 281 278
315 313 312 313 313 311 307 302 298 294 293 292 291 292 293 295 296 297 296 294 292 293 295 295 294 295 295 296 296 295 294 293 292 293 295 297 297 294 290 286 284 283
316 315 312 311 312 312 310 306 301 295 292 291 291 291 292 292 292 293 294 293 292 294 297 299 298 297 297 296 295 294 294 295 297 298 299 300 300 298 294 291 290 290
312 313 312 311 311 313 314 312 306 299 295 293 293 294 295 295 294 294 294 293 293 295 298 301 300 299 299 298 297 298 300 302 303 303 301 299 298 299 298 298 297 297
307 309 309 309 309 310 313 313 308 302 297 296 295 297 299 299 297 295 294 293 293 296 299 300 300 301 301 301 301 301 303 304 304 303 300 297 298 299 300 300 299 298
304 304 304 303 304 304 308 310 308 303 299 297 297 298 299 298 295 292 291 291 293 295 298 299 300 300 301 301 299 299 299 300 300 299 297 296 297 298 299 300 299 297
302 301 301 301 301 301 303 306 307 305 303 301 299 298 299 298 294 289 288 292 295 295 296 298 298 299 300 298 294 292 294 296 297 297 296 296 296 298 299 300 299 297
305 302 301 302 302 302 301 302 305 307 307 305 300 299 299 297 296 294 293 295 297 296 295 296 297 299 300 296 291 289 290 293 296 298 298 297 297 297 298 299 298 299
307 303 302 303 304 302 299 299 303 306 307 305 302 299 298 298 299 300 298 297 297 295 295 296 299 301 300 295 291 288 287 289 293 297 297 296 295 294 294 296 298 300
303 299 300 303 304 302 297 295 300 304 304 305 304 301 300 301 304 305 304 302 297 292 294 298 300 300 296 291 289 286 284 286 289 292 293 293 292 292 293 295 296 298
302 297 294 296 300 301 297 293 296 301 305 306 306 304 303 305 307 307 306 303 293 285 290 295 293 290 289 288 287 285 284 284 286 288 290 290 291 292 293 293 294 296
299 298 295 294 297 300 298 294 296 300 304 306 307 306 305 306 308 308 307 304 295 286 285 284 281 282 285 285 283 282 281 283 285 287 291 292 293 294 295 295 297 298
297 301 302 300 299 299 297 295 296 299 302 304 304 306 307 309 313 316 312 305 297 289 285 282 280 280 281 281 281 281 283 285 288 292 295 295 296 297 297 298 299 300
Height
10724 10724 10724 10723 10723 10723 10722 10722 10722 10721 10721 10720 10719 10719 10718 10717 10717 10716 10715 10715 10714 10713 10713 10712 10712 10711 10711 10710 10710 10709 10708 10707 10707 10706 10705 10704 10703 10702 10701 10701 10701 10700
10724 10724 10724 10723 10723 10723 10722 10722 10722 10721 10720 10720 10719 10718 10718 10717 10716 10716 10715 10714 10713 10712 10711 10711 10711 10710 10710 10709 10708 10708 10707 10706 10705 10705 10704 10703 10702 10701 10700 10699 10699 10699
10723 10723 10723 10723 10722 10722 10722 10722 10721 10721 10720 10719 10718 10718 10717 10717 10716 10715 10714 10713 10712 10711 10710 10709 10709 10708 10708 10708 10707 10706 10706 10705 10704 10703 10702 10702 10701 10700 10699 10698 10698 10697
10722 10722 10722 10722 10721 10721 10721 10721 10720 10720 10719 10718 10717 10717 10716 10716 10715 10714 10713 10712 10711 10710 10709 10708 10707 10706 10706 10706 10706 10705 10704 10704 10703 10702 10701 10700 10699 10699 10698 10697 10696 10695
10722 10721 10721 10721 10721 10720 10720 10719 10719 10718 10718 10717 10716 10715 10715 10714 10713 10712 10711 10710 10710 10709 10707 10706 10705 10704 10704 10704 10704 10704 10703 10702 10701 10700 10699 10698 10697 10697 10695 10694 10694 10693
10721 10721 10721 10720 10720 10719 10718 10718 10718 10717 10716 10716 10714 10713 10713 10712 10711 10710 10709 10708 10707 10707 10706 10705 10703 10702 10701 10701 10701 10701 10701 10699 10698 10698 10697 10696 10695 10694 10693 10692 10691 10690
10720 10720 10720 10719 10719 10718 10717 10716 10716 10715 10715 10714 10713 10712 10711 10710 10709 10708 10707 10706 10705 10704 10704 10703 10702 10700 10699 10699 10699 10699 10698 10697 10696 10695 10695 10694 10693 10692 10691 10690 10689 10688
10719 10718 10718 10718 10717 10716 10715 10714 10714 10713 10712 10711 10711 10710 10708 10708 10707 10706 10705 10704 10703 10702 10701 10701 10700 10699 10697 10697 10696 10696 10695 10695 10694 10693 10692 10691 10690 10689 10688 10687 10687 10686
10717 10717 10716 10716 10715 10714 10713 10712 10712 10711 10710 10709 10708 10707 10706 10705 10704 10703 10702 10701 10701 10700 10699 10698 10698 10697 10696 10694 10693 10693 10692 10692 10691 10691 10690 10689 10688 10687 10686 10685 10684 10683
10716 10715 10714 10714 10713 10712 10711 10710 10709 10708 10707 10706 10705 10704 10703 10702 10701 10701 10700 10699 10698 10698 10697 10696 10695 10694 10693 10692 10691 10690 10689 10689 10688 10687 10687 10686 10685 10684 10683 10682 10681 10680
10714 10713 10712 10711 10710 10709 10708 10707 10706 10705 10704 10703 10702 10701 10700 10699 10698 10698 10697 10696 10696 10695 10695 10694 10692 10691 10690 10689 10688 10687 10686 10686 10685 10684 10684 10683 10682 10681 10680 10679 10678 10678
10711 10711 10710 10709 10708 10707 10706 10705 10704 10702 10701 10700 10699 10698 10697 10696 10696 10696 10695 10695 10694 10693 10693 10692 10690 10689 10687 10685 10684 10683 10683 10682 10682 10681 10681 10680 10680 10679 10678 10677 10676 10675
10709 10708 10708 10707 10706 10705 10704 10703 10702 10700 10699 10698 10697 10696 10695 10694 10694 10694 10693 10692 10691 10690 10690 10689 10688 10686 10685 10683 10681 10680 10679 10678 10678 10678 10677 10677 10676 10676 10675 10674 10673 10672
10706 10706 10705 10705 10704 10703 10702 10701 10700 10698 10696 10695 10694 10694 10693 10692 10692 10691 10691 10690 10688 10687 10686 10686 10685 10684 10683 10682 10680 10678 10676 10675 10674 10673 10673 10673 10673 10673 10672 10671 10670 10669
10704 10703 10703 10702 10702 10701 10700 10699 10697 10696 10694 10692 10692 10692 10692 10691 10690 10689 10688 10687 10685 10684 10683 10683 10682 10681 10681 10680 10678 10676 10674 10673 10671 10670 10669 10669 10669 10669 10669 10667 10666 10664
10701 10701 10700 10700 10699 10698 10697 10696 10695 10693 10691 10690 10689 10689 10690 10689 10687 10686 10685 10684 10683 10682 10681 10680 10679 10678 10678 10677 10675 10673 10672 10670 10668 10667 10665 10665 10664 10664 10664 10663 10661 10659
10697 10697 10697 10696 10696 10695 10694 10693 10692 10690 10688 10687 10686 10686 10687 10686 10685 10684 10683 10682 10681 10680 10678 10677 10676 10675 10675 10674 10673 10671 10669 10667 10666 10664 10662 10660 10659 10659 10658 10657 10655 10653
10693 10693 10692 10692 10692 10691 10690 10689 10688 10686 10685 10684 10683 10683 10683 10683 10682 10681 10680 10679 10678 10677 10675 10674 10672 10672 10671 10670 10669 10668 10666 10665 10663 10661 10659 10656 10655 10654 10653 10651 10650 10648
10689 10689 10688 10688 10688 10687 10686 10685 10684 10682 10681 10680 10679 10679 10679 10679 10678 10677 10676 10675 10674 10673 10671 10670 10668 10667 10667 10667 10665 10664 10662 10661 10659 10658 10656 10653 10651 10649 10648 10646 10645 10643
10685 10684 10684 10684 10683 10683 10682 10681 10679 10678 10677 10676 10675 10675 10675 10674 10674 10673 10672 10671 10670 10669 10667 10665 10664 10663 10662 10662 10660 10659 10657 10656 10654 10653 10652 10650 10647 10645 10643 10641 10639 10638
10681 10680 10680 10679 10679 10678 10677 10676 10675 10674 10673 10672 10671 10670 10670 10669 10669 10669 10668 10668 10667 10665 10663 10661 10660 10659 10658 10656 10654 10653 10651 10650 10649 10648 10647 10645 10642 10640 10638 10636 10634 10632
10678 10677 10677 10676 10676 10675 10674 10673 10671 10670 10669 10668 10667 10666 10665 10665 10664 10664 10664 10663 10662 10660 10658 10656 10655 10654 10652 10650 10648 10647 10645 10644 10642 10641 10641 10639 10636 10635 10633 10631 10628 10626
10675 10675 10674 10674 10673 10672 10671 10670 10669 10668 10666 10665 10663 10662 10661 10661 10660 10660 10659 10657 10656 10654 10651 10650 10649 10647 10645 10643 10642 10640 10639 10637 10635 10634 10634 10632 10629 10628 10627 10625 10623 10621
10670 10671 10671 10671 10670 10669 10668 10667 10666 10665 10664 10662 10661 10659 10658 10657 10656 10655 10653 10652 10652 10650 10646 10644 10643 10641 10638 10636 10635 10634 10632 10630 10627 10626 10625 10623 10621 10620 10619 10617 10615 10613
10665 10665 10666 10667 10667 10666 10665 10663 10662 10662 10660 10659 10657 10656 10655 10654 10652 10650 10648 10647 10647 10645 10642 10639 10636 10634 10632 10630 10628 10627 10625 10623 10621 10619 10618 10615 10613 10612 10611 10609 10607 10604
10661 10661 10661 10662 10662 10662 10661 10660 10659 10658 10656 10655 10654 10653 10652 10650 10649 10648 10645 10642 10641 10640 10636 10632 10629 10626 10624 10623 10621 10619 10618 10617 10614 10611 10610 10608 10605 10603 10602 10600 10598 10595